AAL1409 KOKC-KATL

Flight info

Callsign AAL1409
Flight time N/A
Altitude 35000
Route FUNNL3 PHARA FSM MEMFS HUTCC KNSAW RUSSA GLAVN2
Aircraft B738/M-SDE2E3FGHIRWXY/LB1

Departure

Time 2026-04-28 01:43
Airport OKC Will Rogers World Airport (KOKC)

Arrival

Time N/A
Airport Hartsfield Jackson Atlanta International Airport (KATL)
Time Latitude Longitude Altitude Speed Heading
2026-04-28 00:43 35.39458 -97.59411 1292 ft 0 kts 340°
2026-04-28 01:29 35.39451 -97.59409 1293 ft 2 kts 353°
2026-04-28 01:30 35.39436 -97.59405 1293 ft 2 kts 336°
2026-04-28 01:30 35.39422 -97.59400 1293 ft 2 kts
2026-04-28 01:30 35.39407 -97.59404 1293 ft 2 kts 23°
2026-04-28 01:30 35.39394 -97.59414 1293 ft 2 kts 45°
2026-04-28 01:31 35.39385 -97.59428 1293 ft 2 kts 66°
2026-04-28 01:31 35.39381 -97.59445 1293 ft 0 kts 86°
2026-04-28 01:31 35.39381 -97.59453 1293 ft 1 kts 90°
2026-04-28 01:31 35.39381 -97.59454 1293 ft 0 kts 90°
2026-04-28 01:37 35.39382 -97.59409 1293 ft 10 kts 89°
2026-04-28 01:37 35.39384 -97.59296 1293 ft 13 kts 90°
2026-04-28 01:37 35.39328 -97.59220 1293 ft 13 kts 174°
2026-04-28 01:38 35.39234 -97.59205 1291 ft 14 kts 145°
2026-04-28 01:38 35.39211 -97.59097 1292 ft 12 kts 105°
2026-04-28 01:38 35.39142 -97.59059 1292 ft 11 kts 178°
2026-04-28 01:38 35.39061 -97.59058 1292 ft 11 kts 180°
2026-04-28 01:39 35.38959 -97.59059 1291 ft 18 kts 180°
2026-04-28 01:39 35.38799 -97.59060 1289 ft 26 kts 179°
2026-04-28 01:39 35.38603 -97.59057 1289 ft 28 kts 180°
2026-04-28 01:39 35.38403 -97.59056 1287 ft 29 kts 180°
2026-04-28 01:40 35.38197 -97.59060 1283 ft 30 kts 179°
2026-04-28 01:40 35.37980 -97.59057 1280 ft 31 kts 179°
2026-04-28 01:40 35.37846 -97.59030 1279 ft 18 kts 126°
2026-04-28 01:40 35.37842 -97.59021 1280 ft 0 kts 116°
2026-04-28 01:42 35.37841 -97.59019 1280 ft 2 kts 114°
2026-04-28 01:42 35.37834 -97.58972 1280 ft 9 kts 92°
2026-04-28 01:42 35.37889 -97.58893 1281 ft 17 kts
2026-04-28 01:42 35.37920 -97.58893 1281 ft 0 kts 360°
2026-04-28 01:43 35.37929 -97.58893 1282 ft 16 kts 360°
2026-04-28 01:43 35.38383 -97.58892 1290 ft 110 kts 359°
2026-04-28 01:43 35.39410 -97.58910 1396 ft 175 kts
2026-04-28 01:43 35.40643 -97.58908 2373 ft 182 kts
2026-04-28 01:44 35.41608 -97.58202 3739 ft 168 kts 50°
2026-04-28 01:44 35.42064 -97.57012 4911 ft 155 kts 72°
2026-04-28 01:44 35.42181 -97.55774 5810 ft 151 kts 91°
2026-04-28 01:44 35.42036 -97.54415 6395 ft 175 kts 107°
2026-04-28 01:45 35.41591 -97.53024 7049 ft 183 kts 130°
2026-04-28 01:45 35.40719 -97.51872 7697 ft 194 kts 136°
2026-04-28 01:45 35.40132 -97.50295 8310 ft 221 kts 99°
2026-04-28 01:45 35.40164 -97.48354 9001 ft 237 kts 90°
2026-04-28 01:46 35.40175 -97.46283 9620 ft 255 kts 94°
2026-04-28 01:46 35.40118 -97.44065 10240 ft 274 kts 94°
2026-04-28 01:46 35.40065 -97.41634 10872 ft 293 kts 93°
2026-04-28 01:46 35.40033 -97.39059 11506 ft 314 kts 92°
2026-04-28 01:47 35.40014 -97.36355 12162 ft 332 kts 92°
2026-04-28 01:47 35.39997 -97.33456 12799 ft 351 kts 92°
2026-04-28 01:47 35.39978 -97.30386 13401 ft 370 kts 92°
2026-04-28 01:47 35.39957 -97.27161 14023 ft 388 kts 92°
2026-04-28 01:48 35.39933 -97.23789 14639 ft 405 kts 92°
2026-04-28 01:48 35.39908 -97.20312 15386 ft 416 kts 92°
2026-04-28 01:48 35.39881 -97.16747 16284 ft 423 kts 92°
2026-04-28 01:48 35.39854 -97.13153 17151 ft 429 kts 92°
2026-04-28 01:49 35.39826 -97.09508 18023 ft 435 kts 92°
2026-04-28 01:49 35.39796 -97.05789 18832 ft 441 kts 92°
2026-04-28 01:49 35.39764 -97.02000 19701 ft 446 kts 92°
2026-04-28 01:49 35.39730 -96.98223 20473 ft 452 kts 92°
2026-04-28 01:50 35.39695 -96.94368 21243 ft 457 kts 92°
2026-04-28 01:50 35.39719 -96.90438 22008 ft 463 kts 89°
2026-04-28 01:50 35.39921 -96.86494 22747 ft 469 kts 86°
2026-04-28 01:50 35.40231 -96.82547 23459 ft 474 kts 85°
2026-04-28 01:51 35.40596 -96.78524 24137 ft 480 kts 84°
2026-04-28 01:51 35.40978 -96.74473 24816 ft 485 kts 84°
2026-04-28 01:51 35.41366 -96.70310 25518 ft 489 kts 84°
2026-04-28 01:51 35.41738 -96.66200 26155 ft 493 kts 84°
2026-04-28 01:52 35.42106 -96.62010 26719 ft 499 kts 84°
2026-04-28 01:52 35.42464 -96.57787 27357 ft 503 kts 84°
2026-04-28 01:52 35.42815 -96.53534 27943 ft 507 kts 85°
2026-04-28 01:52 35.43168 -96.49180 28560 ft 511 kts 84°
2026-04-28 01:53 35.43513 -96.44875 29107 ft 515 kts 84°
2026-04-28 01:53 35.43862 -96.40477 29664 ft 519 kts 84°
2026-04-28 01:53 35.44203 -96.36136 30382 ft 517 kts 84°
2026-04-28 01:53 35.44548 -96.31727 30985 ft 518 kts 85°
2026-04-28 01:54 35.44885 -96.27382 31519 ft 519 kts 85°
2026-04-28 01:54 35.45230 -96.22937 32083 ft 519 kts 85°
2026-04-28 01:54 35.45569 -96.18545 32596 ft 520 kts 85°
2026-04-28 01:54 35.45911 -96.14090 33116 ft 520 kts 85°
2026-04-28 01:55 35.46251 -96.09616 33559 ft 522 kts 86°
2026-04-28 01:55 35.46452 -96.05169 33979 ft 523 kts 89°
2026-04-28 01:55 35.46453 -96.00741 34407 ft 523 kts 93°
2026-04-28 01:55 35.46325 -95.96279 34793 ft 524 kts 94°
2026-04-28 01:56 35.45923 -95.87357 34885 ft 525 kts 95°
2026-04-28 01:56 35.45496 -95.78473 34888 ft 522 kts 95°
2026-04-28 01:57 35.45100 -95.69582 34887 ft 522 kts 94°
2026-04-28 01:57 35.44735 -95.60715 34880 ft 523 kts 94°
2026-04-28 01:58 35.44380 -95.51783 34877 ft 523 kts 94°
2026-04-28 01:58 35.44027 -95.42865 34869 ft 522 kts 94°
2026-04-28 01:59 35.43672 -95.34023 34861 ft 521 kts 95°
2026-04-28 01:59 35.43306 -95.25137 34864 ft 521 kts 94°
2026-04-28 02:00 35.42932 -95.16239 34859 ft 522 kts 94°
2026-04-28 02:00 35.42556 -95.07417 34860 ft 520 kts 94°
2026-04-28 02:01 35.42170 -94.98537 34862 ft 522 kts 94°
2026-04-28 02:01 35.41778 -94.89672 34873 ft 521 kts 94°
2026-04-28 02:02 35.41383 -94.80835 34879 ft 520 kts 94°
2026-04-28 02:02 35.40980 -94.71998 34875 ft 521 kts 94°
2026-04-28 02:03 35.40571 -94.63172 34881 ft 520 kts 95°
2026-04-28 02:03 35.40153 -94.54329 34885 ft 520 kts 94°
2026-04-28 02:04 35.39732 -94.45523 34879 ft 520 kts 94°
2026-04-28 02:04 35.39304 -94.36681 34876 ft 520 kts 94°
2026-04-28 02:05 35.38872 -94.27891 34879 ft 519 kts 95°
2026-04-28 02:05 35.38360 -94.19096 34877 ft 520 kts 96°
2026-04-28 02:06 35.37731 -94.10304 34980 ft 520 kts 96°
2026-04-28 02:06 35.37080 -94.01572 34885 ft 516 kts 96°